FW2367 Weather Reports


time (UTC)temp
C
wind
direction
speed
KPH
gust
KPH
rain 1hr
cm
rain 24hr
cm
rain mn
cm
humidity
%
barometer
mb
20260507201414 18 169 0.0 4.8 0.00 0.48 0.38 27 1007.9
20260507200416 18 180 4.8 8.0 0.00 0.48 0.38 27 1007.7
20260507194614 18 180 3.2 8.0 0.00 0.51 0.38 25 1008.1
20260507192615 18 138 1.6 8.0 0.00 0.51 0.38 27 1008.2
20260507191613 18 180 3.2 11.3 0.00 0.51 0.38 26 1008.2
20260507190613 18 180 4.8 11.3 0.00 0.51 0.38 25 1008.2
20260507184630 18 180 4.8 9.7 0.00 0.51 0.38 29 1008.4
20260507183716 18 180 6.4 9.7 0.00 0.51 0.38 30 1008.4
20260507181714 17 180 1.6 6.4 0.00 0.51 0.38 32 1008.7
20260507180714 17 180 6.4 17.7 0.00 0.51 0.38 32 1008.7
20260507175715 17 180 3.2 8.0 0.00 0.51 0.38 33 1008.9
20260507174715 17 180 6.4 12.9 0.00 0.51 0.38 34 1008.7
20260507172713 17 180 0.0 4.8 0.00 0.51 0.38 38 1008.9
20260507171716 17 180 1.6 8.0 0.00 0.51 0.38 39 1009.0
20260507170715 17 180 1.6 6.4 0.00 0.51 0.38 40 1009.0
20260507165714 16 180 0.0 6.4 0.00 0.51 0.38 42 1009.1
20260507164715 17 180 0.0 0.0 0.00 0.51 0.38 45 1009.3
20260507163716 16 180 1.6 6.4 0.00 0.51 0.38 47 1009.4
20260507160717 16 180 1.6 6.4 0.00 0.51 0.38 47 1009.8
20260507160614 16 177 0.0 4.8 0.00 0.51 0.38 47 1009.8
20260507155615 16 180 3.2 11.3 0.00 0.51 0.38 49 1009.8
20260507154712 16 180 6.4 9.7 0.00 0.51 0.38 49 1009.9
20260507153714 16 180 3.2 4.8 0.00 0.51 0.38 49 1009.9
20260507152713 16 180 3.2 16.1 0.00 0.51 0.38 48 1010.0
20260507151714 16 180 9.7 17.7 0.00 0.51 0.38 48 1010.0
20260507150714 16 172 0.0 3.2 0.00 0.51 0.38 48 1010.2
20260507145715 16 178 0.0 1.6 0.00 0.51 0.38 47 1010.3
20260507144715 16 151 0.0 0.0 0.00 0.51 0.38 46 1010.5
20260507143713 16 180 3.2 9.7 0.00 0.51 0.38 48 1010.6
20260507142716 15 180 0.0 6.4 0.00 0.51 0.38 50 1010.5
20260507141716 16 179 0.0 0.0 0.00 0.51 0.38 52 1010.5
20260507135714 15 173 1.6 4.8 0.00 0.51 0.38 55 1010.5
20260507134713 15 108 0.0 4.8 0.00 0.51 0.38 57 1010.7
20260507133715 15 146 0.0 3.2 0.00 0.51 0.38 61 1010.7
20260507132813 13 180 0.0 1.6 0.00 0.51 0.38 67 1010.6
20260507132716 13 180 1.6 4.8 0.00 0.51 0.38 68 1010.6
20260507131715 13 166 0.0 3.2 0.00 0.51 0.38 74 1010.9
20260507130814 12 180 0.0 0.0 0.00 0.51 0.38 80 1010.8
20260507124814 11 135 0.0 0.0 0.00 0.51 0.38 91 1011.1
20260507123814 10 172 0.0 0.0 0.00 0.51 0.38 91 1011.2
20260507122814 10 180 0.0 0.0 0.00 0.51 0.38 91 1011.2
20260507121913 10 180 0.0 0.0 0.00 0.51 0.38 92 1010.8
20260507121814 10 180 0.0 0.0 0.00 0.51 0.38 93 1010.9
20260507120913 10 180 0.0 0.0 0.00 0.51 0.38 92 1010.8
20260507115914 9 180 0.0 0.0 0.00 0.51 0.38 92 1010.8
20260507114913 9 180 0.0 0.0 0.00 0.51 0.38 92 1010.9
20260507113915 9 180 0.0 0.0 0.03 0.51 0.38 93 1010.9
20260507113012 9 180 0.0 0.0 0.03 0.51 0.38 92 1010.6
20260507112015 9 180 0.0 0.0 0.03 0.51 0.38 93 1010.6
20260507111013 9 180 0.0 0.0 0.03 0.51 0.38 93 1010.6
20260507104114 9 180 0.0 0.0 0.08 0.48 0.36 92 1010.9
20260507103113 9 180 0.0 4.8 0.13 0.48 0.36 92 1010.9
20260507101113 9 180 0.0 0.0 0.20 0.48 0.36 91 1010.6
20260507100114 9 180 0.0 0.0 0.23 0.48 0.36 91 1010.3
20260507095113 9 180 0.0 0.0 0.23 0.46 0.33 91 1010.1
20260507094212 9 180 0.0 0.0 0.23 0.43 0.28 90 1010.3
20260507093215 10 180 0.0 0.0 0.18 0.36 0.23 91 1010.1
20260507092215 10 180 0.0 0.0 0.15 0.33 0.20 90 1010.0
20260507091214 10 180 0.0 0.0 0.15 0.30 0.15 90 1010.2
20260507090214 10 180 0.0 0.0 0.10 0.25 0.13 89 1010.5
20260507085215 10 153 0.0 0.0 0.08 0.23 0.10 88 1010.3
20260507084214 10 180 0.0 4.8 0.08 0.20 0.08 88 1010.2
20260507083313 11 180 0.0 6.4 0.08 0.20 0.05 88 1009.9
20260507082413 11 180 0.0 0.0 0.05 0.18 0.05 88 1009.9
20260507081414 11 112 0.0 0.0 0.03 0.15 0.03 86 1009.8
20260507080414 11 180 0.0 0.0 0.03 0.15 0.03 86 1010.1
20260507075414 12 180 0.0 0.0 0.03 0.15 0.03 85 1009.7
20260507074414 12 180 0.0 0.0 0.00 0.13 0.00 84 1009.8
20260507073414 12 147 0.0 0.0 0.00 0.13 0.00 84 1009.6
20260507071514 12 180 0.0 0.0 0.00 0.13 0.00 85 1009.2
20260507070613 12 180 0.0 0.0 0.00 0.13 0.00 87 1009.2
20260507064713 13 180 0.0 0.0 0.00 0.13 0.00 88 1009.2
20260507063812 13 180 0.0 0.0 0.00 0.13 0.00 88 1009.3
20260507062816 13 180 0.0 0.0 0.00 0.13 0.00 88 1009.0
20260507061914 13 180 0.0 0.0 0.00 0.13 0.00 90 1008.9
20260507061012 13 180 0.0 0.0 0.00 0.13 0.00 90 1008.9
20260507055014 13 180 0.0 3.2 0.00 0.13 0.00 91 1009.3
20260507054015 14 180 0.0 0.0 0.00 0.13 0.00 92 1009.5
20260507053112 14 92 0.0 0.0 0.00 0.13 0.00 92 1009.4
20260507051116 15 180 0.0 1.6 0.00 0.13 0.00 94 1009.1
20260507050113 15 180 0.0 0.0 0.00 0.13 0.00 94 1009.2
20260507044213 15 180 4.8 11.3 0.00 0.13 0.00 95 1009.1
20260507043214 15 180 0.0 1.6 0.00 0.13 0.00 95 1009.0
20260507042312 15 180 0.0 0.0 0.00 0.13 0.00 95 1008.9
20260507042213 15 180 0.0 1.6 0.00 0.13 0.00 95 1008.9
20260507042112 15 180 0.0 6.4 0.00 0.13 0.00 95 1009.1
20260507041211 15 180 0.0 4.8 0.00 0.13 0.00 93 1009.2
20260507040216 15 180 1.6 6.4 0.00 0.13 0.00 94 1009.4
20260507035219 15 180 0.0 1.6 0.00 0.13 0.13 94 1009.3
20260507033219 15 180 3.2 11.3 0.00 0.13 0.13 93 1009.0
20260507032222 15 180 3.2 11.3 0.00 0.13 0.13 93 1008.9
20260507031220 15 180 4.8 14.5 0.00 0.13 0.13 93 1008.7
20260507030222 15 180 6.4 17.7 0.00 0.13 0.13 92 1008.7
20260507025220 15 180 4.8 9.7 0.00 0.13 0.13 92 1008.7
20260507024221 15 180 6.4 20.9 0.00 0.13 0.13 93 1008.9
20260507022320 15 180 4.8 17.7 0.00 0.13 0.13 93 1008.8
20260507021419 15 180 0.0 6.4 0.00 0.13 0.13 94 1008.7
20260507015519 15 180 1.6 11.3 0.00 0.13 0.13 94 1008.8
20260507014518 15 180 4.8 17.7 0.00 0.13 0.13 94 1008.9
20260507013522 15 172 0.0 6.4 0.00 0.13 0.13 94 1009.0
20260507012522 14 180 4.8 12.9 0.00 0.13 0.13 94 1009.1
20260507011520 14 180 0.0 4.8 0.00 0.13 0.13 93 1009.3
20260507010521 14 180 6.4 16.1 0.00 0.13 0.13 93 1009.3
20260507005619 14 180 3.2 12.9 0.00 0.13 0.13 94 1009.3
20260507004620 14 180 8.0 17.7 0.03 0.13 0.13 93 1009.5
20260507002621 14 180 4.8 20.9 0.05 0.13 0.13 93 1009.2
20260507001620 14 180 8.0 17.7 0.05 0.13 0.13 92 1009.1
20260507000619 14 180 8.0 17.7 0.05 0.13 0.13 93 1008.9
20260506235620 14 180 4.8 17.7 0.05 0.13 0.13 93 1009.0
20260506234620 14 180 8.0 12.9 0.03 0.10 0.10 93 1009.2
20260506233621 14 180 3.2 11.3 0.03 0.10 0.10 92 1008.9
20260506232621 14 180 0.0 9.7 0.03 0.08 0.08 92 1008.8
20260506230719 15 180 1.6 8.0 0.03 0.08 0.08 92 1009.0
20260506225721 15 180 3.2 12.9 0.03 0.08 0.08 92 1008.9
20260506223818 15 252 1.6 14.5 0.05 0.08 0.08 91 1009.2
20260506222821 15 239 8.0 20.9 0.03 0.05 0.05 91 1009.5
20260506221918 15 277 12.9 22.5 0.03 0.05 0.05 90 1009.3
20260506220922 15 248 3.2 14.5 0.03 0.05 0.05 90 1009.5
20260506220019 15 262 8.0 17.7 0.03 0.05 0.05 89 1009.6
20260506215021 15 254 0.0 4.8 0.03 0.05 0.05 88 1009.7
20260506214020 16 249 8.0 16.1 0.03 0.05 0.03 87 1009.8
20260506213019 16 238 11.3 19.3 0.00 0.03 0.03 85 1009.8
20260506210120 16 242 6.4 17.7 0.00 0.03 0.03 83 1010.0
20260506205219 16 234 8.0 20.9 0.00 0.03 0.03 82 1009.8
20260506204220 16 239 0.0 11.3 0.03 0.03 0.03 79 1010.1
20260506203319 17 227 4.8 12.9 0.03 0.03 0.03 78 1010.1
20260506202320 17 244 11.3 19.3 0.03 0.03 0.03 77 1010.0